Regional Weather Roundup
Issued by NWS

Home | Current Version | Previous Version | Text Only | Print | Product List | Glossary Off
Versions: 1 2 3 4 5 6 7 8 9 10 11 12 13 14 15 16 17 18 19 20 21 22 23 24 25 26 27 28 29 30 31 32 33 34 35 36 37 38 39 40 41 42 43 44 45 46 47 48 49 50

359
ASUS43 KDTX 222101
RWRMI
MICHIGAN HOURLY REGIONAL WEATHER ROUNDUP
NATIONAL WEATHER SERVICE DETROIT/PONTIAC MI
500 PM EDT TUE AUG 22 2017

NOTE: "FAIR" INDICATES FEW OR NO CLOUDS BELOW 12,000 FEET WITH NO
SIGNIFICANT WEATHER AND/OR OBSTRUCTION TO VISIBILITY.

MIZ047>049-052>055-059>063-066>070-074>076-081>083-222200-
SOUTHEAST LOWER MICHIGAN

CITY           SKY/WX    TMP DP  RH WIND       PRES   REMARKS
ADRIAN         MOSUNNY   77  62  59 W18G32    29.82S
ALMA           SUNNY     74  55  51 NW16G25   29.81R
ANN ARBOR      PTSUNNY   79  62  56 MISG      29.79S
BAD AXE        PTSUNNY   73  55  53 NW17G30   29.76R
CARO           MOSUNNY   73  60  63 NW16G24   29.76R
DETROIT CITY   CLOUDY    79  62  56 W13G26    29.75S
DETROIT        PTSUNNY   78  63  59 W20       29.78S
FLINT          RAIN      67  63  87 NW15G31   29.79R FOG
GROSSE ILE     CLOUDY    75  68  77 W9G18     29.76S
HILLSDALE      PTSUNNY   75  61  60 W18G25    29.84S
HOWELL         MOSUNNY   78  61  56 W20G25    29.79F

CITY           SKY/WX    TMP DP  RH WIND       PRES   REMARKS
JACKSON        MOSUNNY   76  59  55 W14G24    29.82S
LAMBERTVILLE   CLOUDY    76  66  70 W12G20    29.80R
LANSING        PTSUNNY   75  59  57 W21G29    29.81R
LAPEER         PTSUNNY   71  58  64 NW17G24   29.77R
MASON          MOSUNNY   78  62  58 W13G22    29.81S
MONROE         PTSUNNY   75  69  81 W8        29.78F
MT. CLEMENS    PTSUNNY   77  64  63 W20       29.73S
PONTIAC        MOSUNNY   78  62  57 W16G30    29.76S
PORT HOPE        N/A     73  58  59 NW15G26   29.73R
PORT HURON     SUNNY     81  61  50 W12G21    29.73S
TRI CITIES     MOSUNNY   73  58  59 NW16G32   29.78R
MIDLAND        FAIR      75  56  51 NW17G29   29.78R
TROY           MOSUNNY   80  61  52 W13G29    29.78S
SAGINAW HB     MOSUNNY   73  59  60 NW20G29   29.76S
$$
MIZ043>046-050>051-056>058-064>065-071>073-077>080-222200-
SOUTHWEST LOWER MICHIGAN

CITY           SKY/WX    TMP DP  RH WIND       PRES   REMARKS
BATTLE CREEK   MOSUNNY   76  62  62 NW15      29.85S
BENTON HARBOR  MOSUNNY   74  61  63 NW9G22    29.89R
BIG RAPIDS     SUNNY     68  51  53 NW15G23   29.84R
COLDWATER      PTSUNNY   77  60  55 W17G24    29.85S
FREMONT        FAIR      71  55  55 NW18G28   29.86R
HOLLAND        SUNNY     72  57  59 NW17G26   29.89R
GRAND RAPIDS   MOSUNNY   76  57  51 NW16G28   29.85R
IONIA          FAIR      76  56  50 W16G29    29.82R
KALAMAZOO      PTSUNNY   77  57  50 W17G23    29.86S
LUDINGTON      SUNNY     72  54  53 W8G18     29.86R
MARSHALL       MOSUNNY   76  61  58 W17       29.84S
MOUNT PLEASANT SUNNY     73  53  48 W14G21    29.81R
MUSKEGON       MOSUNNY   75  55  49 NW22G29   29.88R
SOUTH HAVEN    MOSUNNY   74  62  66 N8G22     29.89R
$$
MIZ016>042-222200-
NORTHERN LOWER MICHIGAN

CITY           SKY/WX    TMP DP  RH WIND       PRES   REMARKS
ALPENA         MOSUNNY   70  53  54 W13G22    29.74R
BEAVER ISLAND  MOSUNNY   71  51  48 W12G17    29.79S
BELLAIRE       PTSUNNY   69  55  61 W8        29.80S
CADILLAC       MOSUNNY   69  49  47 NW15G24   29.84R
CHARLEVOIX     MOSUNNY   68  56  65 W10G16    29.82S
FRANKFORT      SUNNY     73  56  55 W15       29.84R
GAYLORD        MOSUNNY   64  51  62 NW12G21   29.80R
GRAYLING       SUNNY     68  52  56 W15G21    29.81S
HARBOR SPRINGS PTSUNNY   66  51  58 W9G17     29.78R
HOUGHTON LAKE  PTSUNNY   70  53  54 NW10G20   29.82R
MANISTEE       SUNNY     73  56  54 W14       29.84S
OSCODA         MOSUNNY   74  50  42 W23G33    29.74R
PELLSTON       MOSUNNY   69  52  54 W18G26    29.77R
ROGERS CITY    CLOUDY    69  54  58 NW10G17   29.75S
TRAVERSE CITY  PTSUNNY   71  50  47 W18G32    29.81R
$$
MIZ007>008-015-222200-
EASTERN UPPER MICHIGAN

CITY           SKY/WX    TMP DP  RH WIND       PRES   REMARKS
KINROSS        MOSUNNY   66  53  63 NW22      29.73R
MACKINAC ISLAN PTSUNNY   69  52  54 NW18G29   29.74S
NEWBERRY       MOSUNNY   63  50  61 W18G28    29.77S
S. S. MARIE    PTSUNNY   65  52  62 W21G32    29.72S
MUNISING         N/A     66  55  67 NW21G28   29.80S
$$
MIZ004>006-011>014-085-222200-
CENTRAL UPPER MICHIGAN

CITY           SKY/WX    TMP DP  RH WIND       PRES   REMARKS
MANISTIQUE     SUNNY     70  42  36 W14G23    29.78S
ESCANABA       PTSUNNY   71  49  45 NW16G22   29.81S
MENOMINEE      PTSUNNY   71  50  47 VRB7      29.86R
SAWYER-GWINN   MOSUNNY   61  48  63 NW18G26   29.83R
$$
MIZ001>003-009>011-084-222200-
WESTERN UPPER MICHIGAN

CITY           SKY/WX    TMP DP  RH WIND       PRES   REMARKS
IRON MOUNTAIN  MOSUNNY   68  45  43 NW16G25   29.85R
HOUGHTON       SUNNY     66  52  60 W30G37    29.81R
COPPER HARBOR    N/A     67  51  56 N15G30    29.77S
IRONWOOD       PTSUNNY   67  51  56 W14G24    29.91R
$$

ABBREVIATIONS USED IN REMARKS
   TC - TEMPERATURE IN CELSIUS
  WCI - WIND CHILL INDEX
   HX - HEAT INDEX
  VSB - VISIBILITY





USA.gov is the U.S. government's official web portal to all federal, state and local government web resources and services.